TimeEDT,TemperatureF,Dew PointF,Humidity,Sea Level PressureIn,VisibilityMPH,Wind Direction,Wind SpeedMPH,Gust SpeedMPH,PrecipitationIn,Events,Conditions,WindDirDegrees,DateUTC
12:53 AM,59.0,51.1,75,30.18,10.0,ENE,10.4,-,N/A,,Clear,70,2013-03-10 05:53:00
1:53 AM,59.0,52.0,78,30.17,10.0,East,9.2,-,N/A,,Clear,80,2013-03-10 06:53:00
3:53 AM,59.0,52.0,78,30.15,10.0,East,6.9,-,N/A,,Clear,80,2013-03-10 07:53:00
4:53 AM,57.0,52.0,83,30.14,10.0,East,6.9,-,N/A,,Clear,80,2013-03-10 08:53:00
5:53 AM,55.9,51.1,84,30.15,10.0,ENE,5.8,-,N/A,,Clear,70,2013-03-10 09:53:00
6:53 AM,53.1,50.0,89,30.16,10.0,ENE,4.6,-,N/A,,Clear,70,2013-03-10 10:53:00
8:53 AM,59.0,52.0,78,30.19,10.0,ENE,4.6,-,N/A,,Clear,60,2013-03-10 12:53:00
9:53 AM,64.0,52.0,65,30.18,10.0,East,9.2,-,N/A,,Clear,90,2013-03-10 13:53:00
10:53 AM,70.0,52.0,53,30.18,10.0,East,11.5,-,N/A,,Clear,90,2013-03-10 14:53:00
11:53 AM,73.9,51.1,45,30.13,10.0,ESE,19.6,25.3,N/A,,Clear,120,2013-03-10 15:53:00
12:53 PM,77.0,50.0,39,30.14,10.0,SE,15.0,19.6,N/A,,Clear,130,2013-03-10 16:53:00
1:53 PM,79.0,50.0,36,30.12,10.0,East,10.4,20.7,N/A,,Clear,100,2013-03-10 17:53:00
2:53 PM,79.0,50.0,36,30.09,10.0,East,12.7,-,N/A,,Clear,90,2013-03-10 18:53:00
3:53 PM,80.1,51.1,36,30.09,10.0,East,9.2,-,N/A,,Scattered Clouds,90,2013-03-10 19:53:00
4:53 PM,79.0,51.1,38,30.07,10.0,East,13.8,17.3,N/A,,Overcast,80,2013-03-10 20:53:00
5:53 PM,79.0,51.1,38,30.07,10.0,ESE,10.4,-,N/A,,Scattered Clouds,120,2013-03-10 21:53:00
6:53 PM,75.9,51.1,42,30.08,10.0,ESE,8.1,-,N/A,,Mostly Cloudy,110,2013-03-10 22:53:00
7:53 PM,69.1,52.0,54,30.09,10.0,NW,9.2,-,N/A,,Scattered Clouds,310,2013-03-10 23:53:00
8:53 PM,64.9,52.0,63,30.12,10.0,Calm,Calm,-,N/A,,Clear,0,2013-03-11 00:53:00
9:53 PM,64.9,53.1,65,30.13,10.0,ESE,5.8,-,N/A,,Clear,120,2013-03-11 01:53:00
10:53 PM,66.0,54.0,65,30.13,10.0,ESE,4.6,-,N/A,,Overcast,110,2013-03-11 02:53:00
11:53 PM,66.0,53.1,63,30.13,10.0,ESE,9.2,-,N/A,,Overcast,110,2013-03-11 03:53:00
12:53 AM,62.1,53.1,72,30.13,10.0,ESE,4.6,-,N/A,,Partly Cloudy,110,2013-03-11 04:53:00